ES'HAIL 2

Last updated on Mon Sep 15 2025 00:02:49 GMT+0000 (Coordinated Universal Time)

1 43700U 18090A 25257.23169597 .00000132 00000+0 00000+0 0 9999 2 43700 0.0130 118.7322 0001560 96.4357 247.5175 1.00273187 24916
UTC large
Height (km)
Speed (km/s)
/
Latitude / Longitude
Inclination (degrees)
Orbital Period (minutes)
Azimuth
Elevation
Range (km)
Doppler Factor

Next 0 passes for location: London (51.5072 / 0.1276)

Sorry there are no passes over London.